Location: Unspecified
(0.0000°N, 0.0000°E)
Time: 03:43:39
(UTC+00:00)

Hubble Space Telescope - Visible Passes

Search period start: 22 March 2023 00:00
Search period end: 01 April 2023 00:00
Orbit: 527 x 531 km, 28.5° (Epoch: 21 March)

Date Brightness Start Highest point End Pass type
(mag) Time Alt. Az. Time Alt. Az. Time Alt. Az.
22 Mar 2.3 19:55:07 10° SW 19:57:23 31° SW 19:57:23 31° SW visible
23 Mar 1.0 19:41:22 10° WSW 19:44:56 65° W 19:44:56 65° W visible
24 Mar 1.1 19:27:41 10° WSW 19:31:43 57° NNW 19:32:33 46° NNE visible
25 Mar 2.8 05:40:33 10° NNW 05:43:52 24° NNE 05:47:12 10° E visible
25 Mar 1.7 19:14:04 10° WSW 19:17:57 42° NNW 19:20:09 22° NNE visible
26 Mar 2.3 05:26:30 10° NW 05:30:08 32° NNE 05:33:46 10° E visible
26 Mar 2.3 19:00:32 10° W 19:04:11 31° NNW 19:07:47 10° NNE visible
27 Mar 1.8 05:12:30 10° NW 05:16:21 42° NNE 05:20:13 10° ESE visible
27 Mar 2.8 18:47:05 10° W 18:50:25 24° NNW 18:53:44 10° NNE visible
28 Mar 1.1 04:59:58 20° NW 05:02:34 58° NNE 05:06:35 10° ESE visible
28 Mar 3.2 18:33:47 10° WNW 18:36:38 18° NNW 18:39:31 10° NNE visible
29 Mar 0.7 04:47:33 44° NW 04:48:46 81° NNE 04:52:50 10° ESE visible
30 Mar 0.7 04:35:08 72° S 04:35:08 72° S 04:39:01 10° SE visible
31 Mar 2.1 04:22:41 32° SSE 04:22:41 32° SSE 04:25:07 10° SE visible
